Location: Strawberry
(45.6646°N, 111.9596°W)
Time: 20:32:30
(UTC+00:00)

Courier 1B - Pass Details

Date: 11 October 2022
Orbit: 962 x 1209 km, 28.3° (Epoch: 29 November)

Event Time Altitude Azimuth Distance (km) Brightness Sun altitude
Rises 20:29:58 0° 244° (WSW) 4,104 11.4 34.4°
Reaches altitude 10° 20:33:41 10° 229° (SW) 3,126 11.3 34.2°
Maximum altitude 20:39:02 20° 185° (S) 2,404 11.1 33.8°
Drops below altitude 10° 20:44:15 10° 141° (SE) 3,041 10.5 33.4°
Sets 20:47:48 0° 125° (SE) 3,959 10.8 33.1°
